TimeEDT,TemperatureF,Dew PointF,Humidity,Sea Level PressureIn,VisibilityMPH,Wind Direction,Wind SpeedMPH,Gust SpeedMPH,PrecipitationIn,Events,Conditions,WindDirDegrees,DateUTC
12:51 AM,44.1,42.1,93,30.13,10.0,NW,4.6,-,N/A,,Clear,320,2013-09-30 04:51:00
1:51 AM,42.1,39.0,89,30.12,10.0,Calm,Calm,-,N/A,,Clear,0,2013-09-30 05:51:00
2:03 AM,42.8,39.2,87,30.12,10.0,NW,3.5,-,N/A,,Partly Cloudy,320,2013-09-30 06:03:00
2:51 AM,41.0,39.0,93,30.09,9.0,NW,4.6,-,N/A,,Clear,310,2013-09-30 06:51:00
3:51 AM,39.9,37.9,93,30.09,10.0,WNW,4.6,-,N/A,,Clear,300,2013-09-30 07:51:00
4:51 AM,39.0,37.0,93,30.09,10.0,NW,3.5,-,N/A,,Partly Cloudy,310,2013-09-30 08:51:00
5:06 AM,41.0,39.2,93,30.10,10.0,Calm,Calm,-,N/A,,Mostly Cloudy,0,2013-09-30 09:06:00
5:51 AM,42.1,41.0,96,30.09,2.5,Calm,Calm,-,N/A,,Overcast,0,2013-09-30 09:51:00
5:56 AM,41.0,39.2,93,30.10,0.8,Calm,Calm,-,N/A,,Overcast,0,2013-09-30 09:56:00
6:06 AM,41.0,39.2,93,30.09,0.2,NW,3.5,-,N/A,Fog,Fog,320,2013-09-30 10:06:00
6:19 AM,41.0,39.2,93,30.11,0.2,Calm,Calm,-,N/A,Fog,Fog,0,2013-09-30 10:19:00
6:51 AM,39.0,37.9,96,30.09,0.2,NW,5.8,-,N/A,Fog,Fog,310,2013-09-30 10:51:00
7:03 AM,39.2,39.2,100,30.09,0.8,NW,6.9,-,N/A,,Mist,320,2013-09-30 11:03:00
7:35 AM,42.8,41.0,93,30.10,2.0,NW,5.8,-,N/A,,Mostly Cloudy,320,2013-09-30 11:35:00
7:40 AM,42.8,41.0,93,30.09,8.0,NW,6.9,-,N/A,,Scattered Clouds,320,2013-09-30 11:40:00
7:51 AM,43.0,42.1,97,30.09,10.0,NW,5.8,-,N/A,,Partly Cloudy,310,2013-09-30 11:51:00
8:51 AM,48.9,46.9,93,30.10,10.0,Calm,Calm,-,N/A,,Clear,0,2013-09-30 12:51:00
9:51 AM,57.0,50.0,77,30.07,10.0,NNW,3.5,-,N/A,,Clear,330,2013-09-30 13:51:00
10:51 AM,62.1,51.1,67,30.06,10.0,Calm,Calm,-,N/A,,Clear,0,2013-09-30 14:51:00
11:51 AM,64.0,50.0,60,30.04,10.0,South,3.5,-,N/A,,Clear,180,2013-09-30 15:51:00
12:51 PM,66.9,50.0,54,30.03,10.0,South,3.5,-,N/A,,Clear,190,2013-09-30 16:51:00
1:51 PM,66.0,48.0,52,30.01,10.0,Calm,Calm,-,N/A,,Partly Cloudy,0,2013-09-30 17:51:00
2:51 PM,64.9,51.1,61,30.01,10.0,ESE,9.2,-,N/A,,Mostly Cloudy,120,2013-09-30 18:51:00
3:51 PM,64.0,51.1,63,29.99,10.0,SE,6.9,-,N/A,,Clear,130,2013-09-30 19:51:00
4:51 PM,64.0,50.0,60,29.98,10.0,SSE,3.5,-,N/A,,Clear,150,2013-09-30 20:51:00
5:51 PM,61.0,48.9,64,29.99,10.0,SSE,3.5,-,N/A,,Clear,160,2013-09-30 21:51:00
6:51 PM,55.9,48.9,77,30.00,10.0,Calm,Calm,-,N/A,,Clear,0,2013-09-30 22:51:00
7:51 PM,53.1,48.0,83,29.99,10.0,Calm,Calm,-,N/A,,Clear,0,2013-09-30 23:51:00
8:51 PM,50.0,46.9,89,29.99,10.0,Calm,Calm,-,N/A,,Clear,0,2013-10-01 00:51:00
9:51 PM,51.1,48.0,89,29.98,10.0,Calm,Calm,-,N/A,,Clear,0,2013-10-01 01:51:00
10:51 PM,51.1,48.0,89,29.97,10.0,WNW,4.6,-,N/A,,Clear,300,2013-10-01 02:51:00
11:37 PM,46.4,44.6,93,29.97,2.0,Calm,Calm,-,N/A,,Scattered Clouds,0,2013-10-01 03:37:00
11:39 PM,46.4,44.6,93,29.97,0.8,Calm,Calm,-,N/A,,Mist,0,2013-10-01 03:39:00
11:51 PM,46.9,45.0,93,29.96,0.5,Calm,Calm,-,N/A,Fog,Fog,0,2013-10-01 03:51:00
11:59 PM,46.4,46.4,100,29.97,2.0,Calm,Calm,-,N/A,,Overcast,0,2013-10-01 03:59:00